Vertical_Velocity
10 -12 -6 -0 7 2 2 -3 -0 -0 4 4 5 -3 -5 -7 -7 -6 -2 8 5 10 4 6 4 -1 -7 -4 -1 1 1 2 3 3 -0 0 1 1 2 0 -1 -2 2 -0
0 -20 11 7 3 4 2 7 -3 -10 -2 12 3 3 1 -4 -8 6 7 8 -4 6 7 3 6 0 -6 4 3 1 2 -1 -3 -2 -5 -2 -2 1 -0 -0 2 1 3 -2
-4 4 -4 1 -4 3 7 1 0 4 -8 -9 -12 -7 -20 -21 -8 -0 0 4 5 4 -0 6 -5 -8 -3 -4 7 12 12 3 1 -3 -1 -1 -1 -2 -3 -1 2 1 0 3
-4 -4 -2 -2 -6 2 6 2 -1 -0 -1 -5 -5 -31 -14 -14 -14 -7 -0 -6 -1 -3 -1 2 -8 -6 3 18 12 11 -0 3 -1 -3 -2 3 1 -3 1 1 1 1 -1 -3
-7 0 6 -0 -0 4 -7 -2 -2 -2 0 9 -6 3 -0 -10 -2 -1 -8 -7 4 9 7 6 3 12 7 16 11 14 4 1 -1 -1 -2 2 1 6 5 2 1 2 0 1
-9 3 -2 -5 2 5 9 5 0 -0 4 8 -15 3 -2 -4 -4 -2 -16 -12 -14 -6 -5 3 8 20 16 8 12 11 1 2 8 1 0 -2 1 5 3 2 -2 -1 0 -0
4 -2 -3 9 1 -8 8 7 -3 -4 3 -7 2 12 -28 6 0 6 -5 -6 -2 -4 -4 7 18 15 13 12 12 10 -1 8 5 5 0 -2 -1 -1 0 1 2 2 -0 -2
-0 -18 -8 6 2 1 6 10 -5 -3 -2 -4 -1 -5 7 7 7 -2 -3 -3 1 1 2 5 11 14 10 14 8 4 3 7 -2 -2 5 -2 -2 -2 -2 3 3 1 -1 -7
2 -3 2 11 8 0 1 3 5 4 6 5 -1 -5 20 3 5 3 -0 -3 -1 -1 2 7 9 1 3 3 -1 -3 -4 3 2 -1 3 4 -0 4 3 4 0 0 -17 6
-0 -4 -9 -13 2 6 9 4 -2 3 0 -2 -6 -3 1 -3 -1 -5 5 10 -10 -7 -0 5 -6 -12 -16 -14 5 1 -17 7 -1 -0 -4 3 -1 1 -4 5 3 3 -1 3
0 4 -2 7 -4 3 -14 1 5 4 7 1 -1 -17 10 6 3 2 -1 -0 -5 -9 -8 -11 -2 -2 -3 -4 2 3 -2 -7 3 -4 4 8 -4 -0 1 1 -0 1 0 3
2 1 -6 -2 -1 -1 -11 -12 13 10 -11 5 4 -32 14 -6 -8 2 -18 5 -22 -15 -4 -7 -10 -8 -8 -5 7 -3 -46 -19 10 -2 16 9 -1 -2 -1 10 9 4 4 3
3 3 -6 -15 6 5 1 -3 9 10 6 -1 6 -15 9 10 15 1 7 -14 18 5 0 5 3 3 3 7 3 1 10 -14 -19 -26 7 3 -11 3 2 -4 4 2 1 -1
5 -1 2 -6 -2 9 -7 -11 3 36 6 -11 -3 -7 -21 -8 -6 27 -28 1 3 -4 1 -1 5 7 3 4 0 5 1 7 8 4 21 -9 9 14 -5 -3 -1 5 -7 -3
9 -5 9 -3 5 3 -5 -5 14 -1 -2 22 -27 6 -2 -7 4 -5 11 9 5 3 1 2 0 1 -5 -8 -4 3 9 4 -2 -1 5 5 1 6 3 10 8 -2 3 2
1 -11 2 -19 6 1 -18 9 -9 0 -14 0 6 -18 26 -4 -6 -0 5 8 3 1 0 5 4 -1 -4 1 7 4 10 9 5 6 -0 6 -6 3 -3 12 7 0 -0 1
4 0 6 -15 1 5 -15 -4 -1 -15 1 15 -1 -8 4 -4 2 4 -3 -0 -2 -2 -2 -0 -10 -4 1 -2 -2 -7 -3 14 6 -4 5 1 3 -0 6 6 2 -0 2 3
-2 3 12 -9 13 3 -29 -1 3 1 -2 7 0 2 5 -4 -2 0 5 4 2 -8 -10 -8 -9 1 3 4 1 -0 -13 -2 0 2 1 1 2 3 3 3 3 1 3 2
2 17 3 3 2 -22 5 -31 3 17 -14 -1 1 4 9 10 0 -2 -3 -2 -5 -8 -5 -9 3 -6 -8 4 -0 -4 -4 -4 1 -0 1 -0 3 4 11 2 1 4 3 5
2 12 28 4 5 -1 10 1 14 -1 -21 -6 -2 5 -18 12 -3 -6 -3 3 -5 -15 -3 0 7 -0 -0 6 1 -2 -4 1 -7 -5 -2 3 -1 3 3 2 5 7 7 5
4 0 -1 2 1 -9 -1 -6 9 20 -6 9 6 6 -8 5 -1 -2 -2 -5 -0 -2 -1 5 1 4 -2 2 2 -3 -4 4 -0 -0 -1 0 2 4 2 2 1 3 2 4
-0 -2 2 5 7 -5 2 11 3 1 -14 -13 15 3 4 1 7 -2 -9 -4 -4 -8 -0 -3 3 -1 5 5 -2 -6 -2 -3 0 0 1 1 1 3 2 1 2 0 1 2
-1 8 3 14 2 11 -8 12 -9 -18 -10 7 4 -3 -2 5 -2 2 0 -8 -0 -3 1 3 -2 -1 3 1 3 0 -0 3 1 -1 -1 -1 -2 -2 -1 1 1 1 1 1
-6 3 -1 -3 0 -11 14 8 11 9 7 2 -13 -5 -2 -3 -6 -5 -2 -5 -1 -2 5 1 -2 2 4 1 0 -0 -1 -1 -1 -1 -0 -1 -2 -1 -1 -0 1 -1 1 1
8 4 3 -7 -13 5 -2 -2 7 5 6 4 7 -0 2 -1 7 -1 -4 -0 -1 3 -1 -15 7 3 -2 1 1 -1 -2 -1 0 0 -0 -1 -1 -1 -2 -0 -1 0 2 1
3 -3 1 -33 7 3 -5 1 4 1 -0 2 7 5 -5 1 3 -5 -1 -3 -2 -1 -2 -7 8 -2 3 -0 0 -1 0 0 1 2 2 1 1 1 -1 -1 -0 0 2 0
Height
3109 3108 3104 3107 3108 3108 3107 3105 3104 3103 3103 3097 3095 3093 3095 3097 3097 3098 3098 3097 3091 3086 3082 3078 3078 3081 3085 3085 3087 3089 3090 3089 3088 3089 3090 3092 3094 3095 3096 3096 3096 3096 3098 3097
3103 3099 3104 3103 3102 3103 3103 3103 3101 3098 3098 3094 3090 3085 3088 3091 3089 3088 3088 3088 3088 3081 3077 3075 3073 3074 3078 3078 3080 3083 3084 3083 3083 3083 3084 3086 3088 3089 3091 3092 3092 3091 3092 3092
3099 3097 3098 3099 3098 3098 3097 3097 3096 3095 3092 3091 3087 3078 3079 3083 3082 3078 3075 3074 3075 3072 3069 3066 3067 3069 3070 3072 3073 3076 3079 3076 3076 3077 3078 3081 3082 3083 3086 3086 3086 3086 3087 3088
3096 3095 3094 3093 3093 3094 3093 3094 3091 3089 3089 3086 3086 3072 3073 3072 3071 3069 3065 3063 3064 3063 3061 3060 3058 3060 3063 3065 3066 3070 3072 3071 3071 3072 3072 3074 3075 3076 3079 3080 3080 3081 3081 3083
3093 3092 3092 3091 3091 3091 3090 3089 3087 3085 3083 3080 3079 3081 3063 3064 3060 3059 3056 3054 3054 3054 3053 3050 3049 3050 3054 3062 3065 3064 3065 3064 3065 3065 3067 3068 3069 3072 3074 3074 3076 3077 3078 3078
3087 3088 3088 3087 3086 3085 3086 3086 3084 3081 3077 3069 3071 3070 3054 3059 3055 3053 3052 3050 3049 3047 3046 3044 3044 3048 3054 3058 3058 3058 3060 3059 3059 3060 3060 3062 3065 3068 3069 3070 3071 3072 3073 3074
3083 3082 3083 3083 3080 3081 3081 3081 3080 3078 3073 3064 3066 3065 3059 3054 3052 3048 3046 3045 3044 3043 3043 3041 3044 3049 3052 3053 3054 3053 3054 3054 3055 3055 3056 3057 3059 3062 3064 3065 3068 3069 3069 3071
3080 3075 3078 3078 3076 3075 3076 3077 3078 3075 3071 3063 3064 3061 3059 3055 3050 3046 3044 3042 3041 3041 3040 3043 3044 3048 3049 3049 3050 3050 3049 3049 3051 3051 3051 3051 3053 3055 3058 3061 3062 3064 3065 3065
3080 3074 3075 3076 3074 3074 3074 3074 3075 3071 3067 3065 3057 3058 3056 3053 3050 3047 3045 3044 3042 3041 3041 3041 3042 3044 3046 3047 3046 3046 3048 3047 3046 3046 3047 3047 3048 3051 3053 3055 3056 3058 3059 3061
3075 3068 3068 3070 3070 3073 3071 3071 3070 3068 3064 3059 3053 3051 3049 3048 3047 3046 3046 3042 3041 3041 3038 3039 3039 3039 3040 3041 3040 3040 3042 3044 3041 3040 3042 3042 3043 3045 3047 3048 3051 3053 3055 3055
3071 3069 3063 3062 3063 3063 3065 3064 3064 3063 3061 3055 3054 3047 3045 3046 3045 3044 3042 3042 3041 3041 3038 3036 3038 3035 3033 3034 3035 3035 3034 3036 3037 3037 3037 3037 3038 3040 3041 3043 3045 3047 3048 3049
3069 3063 3056 3054 3056 3058 3060 3058 3056 3056 3055 3051 3048 3044 3043 3042 3043 3041 3039 3040 3035 3035 3034 3032 3032 3030 3030 3031 3032 3029 3031 3030 3031 3032 3032 3032 3034 3035 3037 3037 3039 3041 3042 3042
3064 3060 3054 3046 3051 3050 3050 3051 3050 3051 3049 3048 3048 3038 3041 3038 3037 3034 3031 3033 3032 3030 3027 3027 3025 3023 3022 3021 3022 3022 3021 3022 3024 3025 3025 3026 3027 3027 3031 3031 3032 3034 3035 3036
3060 3055 3054 3050 3047 3047 3045 3044 3043 3043 3042 3040 3035 3032 3030 3032 3030 3027 3021 3025 3023 3024 3021 3020 3018 3018 3017 3017 3016 3015 3015 3015 3015 3015 3016 3018 3018 3020 3021 3022 3024 3025 3027 3029
3053 3048 3048 3043 3041 3039 3036 3028 3033 3034 3032 3032 3027 3026 3026 3024 3022 3019 3017 3016 3015 3015 3014 3012 3010 3008 3007 3007 3007 3006 3006 3006 3008 3007 3009 3008 3010 3012 3012 3014 3017 3018 3020 3022
3045 3037 3039 3036 3036 3034 3028 3023 3025 3022 3020 3019 3019 3015 3018 3015 3015 3014 3011 3010 3008 3008 3005 3002 3000 2999 2998 2998 2997 2995 2997 2998 2998 3000 3000 3001 3003 3004 3007 3007 3011 3011 3014 3015
3037 3034 3031 3025 3029 3025 3020 3017 3018 3014 3011 3010 3009 3009 3009 3008 3008 3006 3004 3002 3000 2998 2995 2991 2989 2987 2985 2986 2985 2984 2986 2989 2991 2991 2992 2993 2994 2996 2998 3001 3003 3005 3006 3006
3027 3028 3028 3021 3023 3019 3006 3011 3010 3007 3001 3002 3003 3002 3002 3001 3000 2998 2997 2996 2993 2990 2987 2984 2979 2971 2972 2975 2974 2975 2979 2981 2982 2983 2984 2985 2986 2988 2990 2992 2994 2996 2997 2997
3017 3021 3020 3019 3014 3008 2995 3001 3000 2998 2995 2996 2996 2996 2996 2995 2993 2994 2992 2989 2986 2983 2980 2978 2971 2970 2968 2968 2970 2970 2972 2973 2976 2976 2977 2978 2979 2980 2981 2983 2986 2987 2988 2988
3009 3012 3017 3016 3012 3004 2996 2996 2996 2995 2989 2989 2990 2990 2988 2991 2989 2988 2986 2984 2981 2978 2975 2972 2970 2971 2968 2967 2966 2966 2968 2969 2970 2970 2972 2972 2973 2974 2975 2975 2976 2978 2979 2982
3004 3006 3006 3005 3002 2995 2990 2989 2989 2989 2990 2985 2987 2986 2984 2985 2985 2983 2980 2978 2975 2973 2970 2968 2966 2965 2964 2963 2962 2962 2963 2965 2964 2965 2966 2967 2967 2968 2968 2968 2969 2971 2973 2975
2998 3000 2997 2996 2994 2990 2986 2984 2986 2983 2981 2979 2983 2982 2981 2980 2979 2976 2975 2972 2968 2965 2962 2962 2962 2960 2960 2959 2959 2960 2960 2959 2960 2960 2960 2961 2961 2961 2961 2962 2963 2964 2966 2969
2995 2993 2991 2990 2984 2979 2977 2979 2980 2978 2976 2976 2977 2977 2977 2976 2974 2972 2970 2967 2962 2959 2955 2955 2956 2954 2955 2956 2955 2955 2955 2955 2955 2956 2955 2956 2955 2956 2956 2956 2957 2959 2961 2963
2988 2987 2984 2984 2982 2980 2979 2977 2977 2975 2973 2972 2972 2972 2972 2970 2968 2966 2963 2961 2958 2954 2950 2948 2949 2950 2951 2951 2950 2950 2951 2951 2951 2951 2951 2951 2951 2951 2951 2953 2954 2955 2956 2958
2980 2981 2979 2975 2975 2974 2974 2973 2973 2971 2970 2969 2969 2968 2966 2964 2963 2960 2957 2955 2953 2951 2950 2946 2944 2944 2946 2947 2947 2946 2946 2946 2946 2946 2946 2946 2945 2946 2947 2948 2950 2951 2953 2956
2972 2972 2973 2966 2969 2968 2966 2966 2967 2966 2965 2964 2963 2960 2959 2958 2956 2954 2952 2949 2949 2948 2945 2944 2944 2943 2943 2943 2942 2941 2940 2940 2940 2940 2941 2940 2940 2942 2944 2945 2946 2947 2949 2951